Location: Fatehalanka
(16.3139°N, 80.8379°E)
Time: 07:32:59
(UTC+00:00)

SWIFT - Pass Details

Date: 14 May 2026
Orbit: 365 x 369 km, 20.6° (Epoch: 6 June)

Event Time Altitude Azimuth Distance (km) Brightness Sun altitude
Rises 13:46:36 0° 276° (W) 2,224 7.0 -11.3°
Reaches altitude 10° 13:48:46 10° 285° (WNW) 1,371 5.8 -11.8°
Maximum altitude 13:51:43 38° 355° (N) 581 2.7 -12.5°
Enters shadow 13:54:12 13° 63° (ENE) 1,189 3.7 -13.0°
